Regional Weather Roundup
Issued by NWS

Home | Current Version | Previous Version | Text Only | Print | Product List | Glossary Off
Versions: 1 2 3 4 5 6 7 8 9 10 11 12 13 14 15 16 17 18 19 20 21 22 23 24 25 26 27 28 29 30 31 32 33 34 35 36 37 38 39 40 41 42 43 44 45 46 47 48 49 50

000
ASUS45 KSLC 300010
RWRUT

UTAH REGIONAL WEATHER ROUNDUP
NATIONAL WEATHER SERVICE SALT LAKE CITY UT
600 PM MDT TUE JUL 29 2014

UTZ001>011-023>025-300100-

NORTHERN UTAH

CITY           SKY/WX    TMP DP  RH WIND       PRES   REMARKS
HILL AFB       PTSUNNY   66  63  88 SE14      30.19S
LOGAN          SUNNY     72  60  66 N3        30.16F
OGDEN          PTSUNNY   72  60  66 SE14G24   30.16S
PROVO AIRPORT  PTSUNNY   72  57  60 S21       30.20R
SALT LAKE CITY PTSUNNY   74  59  59 CALM      30.14F
VERNAL         LGT RAIN  63  57  81 CALM      30.22F
WENDOVER       CLOUDY    73  54  49 CALM      30.17R
HEBER CITY     CLOUDY    70  55  60 CALM      30.22S
WEST JORDAN    PTSUNNY   73  64  73 CALM      30.18F

$$

UTZ012>022-026-027-300100-

SOUTHERN UTAH

CITY           SKY/WX    TMP DP  RH WIND       PRES   REMARKS
BRYCE CANYON   LGT RAIN  61  54  77 NW17      30.37S
CEDAR CITY     RAIN      64  61  90 NE14      30.23R FOG
MILFORD        PTSUNNY   77  57  50 S10       30.18S
MOAB/CYNLANDS  TSTM      67  61  81 E6        30.15F
PRICE          CLOUDY    69  55  60 S6        30.23R
ST GEORGE      CLOUDY    97  52  21 W16G26    29.97F HX  94
KANAB          PTSUNNY   84  52  32 S13       30.15F

$$

REGIONAL REPORTS     COLORADO/ARIZONA

CITY           SKY/WX    TMP DP  RH WIND       PRES   REMARKS
CRAIG, CO      PTSUNNY   66  58  75 E9        30.24F
GRAND JUNCTION MOSUNNY   79  59  50 SW12      30.13F
RIFLE          TSTM      70  58  65 NW7       30.21F
MONTROSE       LGT RAIN  72  58  61 SE10      30.23F
CORTEZ         SUNNY     77  50  38 N9        30.23R
PAGE, AZ       MOSUNNY   93  46  19 NW3       30.04F
GRAND CANYON   PTSUNNY   81  48  31 SW16G25   30.27F
KINGMAN        SUNNY     95  47  19 SW17G23   30.04F HX  91
FLAGSTAFF      PTSUNNY   78  49  35 SW17      30.31F

$$

REGIONAL REPORTS    NEVADA/IDAHO/WYOMING

CITY           SKY/WX    TMP DP  RH WIND       PRES   REMARKS
LAS VEGAS, NV  MOSUNNY   99  49  18 SW14G21   29.90F HX  96
ELY            SUNNY     82  42  24 N9G18     30.24F
ELKO           CLOUDY    81  47  30 NW23G33   30.18R
POCATELLO, ID  SUNNY     78  55  44 E10       30.15F
BURLEY         CLOUDY    81  50  33 VRB5      30.11F
EVANSTON, WY   PTSUNNY   63  55  75 S7        30.32S
ROCK SPRINGS   LGT RAIN  59  55  87 NE20      30.35R

$$



USA.gov is the U.S. government's official web portal to all federal, state and local government web resources and services.